WomensCycling.net

 

Home

Latest Additions

 Calendar 2008

Interviews

Photo Gallery

Links

New To Cycling?

2007 Archive (and earlier)

 
 

Ster Zeeuwsche Eilanden

 

WCN quicklink >>  Stage 1      Stage 2     Stage 3

Race Website

      

On this page >>     Results     General Classification     

 

 

Stage 1

Vlissingen - 7km individual time trial  15 June

 

Results

Position Surname / Name Team Time Gap Km/hr
1 Villumsen, Linda BFL 09:20.1 44.991
2 Slappendel, Iris VVP 09:21.9 1.76 44.85
3 Gunnewijk, Loes BFL 09:31.1 11 44.125
4 Bates, Natalie AAD 09:32.0 11.85 44.059
5 Koedooder, Vera BFL 09:33.2 13.12 43.961
6 Wild, Kirsten AAD 09:33.3 13.15 43.959
7 van Dongen, Jolanda HCT 09:34.4 14.26 43.874
8 Sandig, Madeleine BFL 09:37.6 17.52 43.627
9 Senff, Theresa AAD 09:38.1 17.95 43.594
10 Vos, Marianne DSB 09:39.5 19.35 43.489
11 Groenveld, Josephine AAD 09:41.4 21.28 43.344
12 Beltman, Chantal VVP 09:42.3 22.2 43.276
13 Beutler, Annette BFL 09:43.9 23.79 43.158
14 Pohl, Stephanie GER 09:44.2 24.05 43.139
15 de Goede, Suzanne AAD 09:45.9 25.74 43.014
16 Rombouts, Sandra BFL 09:46.2 26.13 42.986
17 Brodtka, Angela AAD 09:46.7 26.6 42.951
18 van Dijk, Ellen VVP 09:51.6 31.53 42.593
19 van Rie, An LBL 09:55.2 35.09 42.339
20 Kerste, Marielle MER 09:56.0 35.93 42.279
21 van Damme, Evy VLL 09:56.2 36.12 42.266
22 Missbach, Sandra AAD 09:56.4 36.33 42.251
23 Hollmann, Birgit GER 09:56.7 36.57 42.234
24 Peeters, Sara VLL 09:56.8 36.64 42.229
25 Spijkerman, Bertine TSC 09:57.3 37.19 42.19
26 v.d. Broek, Irene TSC 09:58.0 37.9 42.14
27 Vandromme, Sharon VLL 09:58.8 38.72 42.082
28 Witteveen, Claudia MER 09:59.5 39.41 42.034
29 Traksel-Pirard, Christa LBL 10:00.0 39.93 41.997
30 Visser, Adrie AAD 10:00.1 40.02 41.991
31 Gronow, Stephanie STS 10:00.3 40.15 41.982
32 Mansveld, Debby VLL 10:00.4 40.27 41.973
33 Sterckx, Kathleen MER 10:01.1 40.94 41.927
34 Ehrin, Mirella MER 10:02.3 42.2 41.839
35 Bakker, Liesbeth HCT 10:03.9 43.81 41.727
36 Braam, Elisabeth TSC 10:04.7 44.63 41.671
37 Markerink, Loes HCT 10:05.2 45.06 41.641
38 Steurs, Karen KDG 10:05.3 45.15 41.635
39 Furrer, Monika SUI 10:06.2 46.07 41.572
40 Söllner, Birgit STS 10:08.4 48.31 41.419
41 Wallaard, Jaccolien HCT 10:08.9 48.77 41.387
42 Bekkering, Daniëlle DSB 10:09.0 48.85 41.382
43 Bosman, Andrea HCT 10:11.0 50.9 41.243
44 Helmink, Judith HCT 10:11.7 51.59 41.197
45 Wannijn, Ine VLL 10:12.3 52.23 41.154
46 van Veen, Suzanne BFL 10:12.7 52.54 41.133
47 van Rijen, Linda NSJ 10:12.7 52.59 41.129
48 Profijt, Marije TSC 10:13.7 53.6 41.062
49 Nauta, Njisk RTW 10:14.2 54.06 41.031
50 Vos, Janneke TSC 10:14.4 54.27 41.017
51 Senn, Mirjam STS 10:15.1 54.96 40.971
52 de Vocht, Liesbet LBL 10:15.2 55.08 40.963
53 Bras, Martine MOV 10:15.2 55.1 40.962
54 Verbeke, Grace LBL 10:15.5 55.43 40.94
55 Käser, Nicole STS 10:18.1 57.97 40.771
56 Grimberg, Arenda RTW 10:18.4 58.25 40.753
57 Schnider, Pascale SUI 10:18.7 58.59 40.731
58 Hiemstra, Marie-Sophie EBH 10:18.8 58.72 40.722
59 Hennes, Tanja BFL 10:19.0 58.93 40.708
60 van Essen, Sharon VVP 10:19.8 59.68 40.659
61 Wyman, Helen FBU 10:20.4 01:00.3 40.619
62 Miggels, Kristy TSC 10:21.3 01:01.2 40.562
63 de Koning, Aukje TSC 10:21.4 01:01.3 40.554
64 Werner, Laure VLL 10:21.6 01:01.5 40.539
65 Torp, Linn DSB 10:22.3 01:02.2 40.496
66 van de Ree, Monique NSJ 10:24.7 01:04.6 40.337
67 van den Berg, Debby HCT 10:26.1 01:06.0 40.25
68 van der Burg, Mieke EBH 10:26.2 01:06.1 40.245
69 Ringlever, Linda HCT 10:27.1 01:07.0 40.186
70 van Alebeek, Sissy RTW 10:27.5 01:07.4 40.159
71 De Toit, Yolandi FBU 10:29.2 01:09.1 40.053
72 Welter, Hannah NSJ 10:29.9 01:09.8 40.004
73 van Paassen, Sanne NSJ 10:30.1 01:10.0 39.99
74 Henrion, Ludivine LBL 10:30.5 01:10.4 39.97
75 Ehrin, Maria MER 10:31.1 01:11.0 39.928
76 van Veghel, Sandra NWH 10:31.7 01:11.5 39.895
77 Ammerlaan, Patricia EBH 10:32.3 01:12.2 39.854
78 Moonen, Daniëlla MOV 10:32.6 01:12.5 39.834
79 Hillenga, Angela DSB 10:33.1 01:13.0 39.804
80 Dijkman, Petra EBH 10:33.5 01:13.4 39.78
81 Verstraten, Monique VVP 10:36.7 01:16.6 39.578
82 Kampeter, Nicole GER 10:36.9 01:16.7 39.57
83 Nijhof, Femke RTO 10:37.0 01:16.9 39.562
84 Remmelts, Florien RTO 10:37.8 01:17.7 39.51
85 Hare, Catherine FBU 10:38.5 01:18.4 39.468
86 Glasbergen, Jessica MER 10:38.9 01:18.8 39.44
87 Heijmans, Eva NWH 10:39.1 01:19.0 39.43
88 Rötmensen, Moniek VVP 10:39.5 01:19.4 39.404
89 Leezer, Yvonne VVP 10:40.6 01:20.5 39.338
90 van Beers, Denise RTW 10:40.9 01:20.8 39.322
91 Brok, Janne VVP 10:41.0 01:20.9 39.315
92 Tabak, Noortje NSJ 10:41.7 01:21.6 39.269
93 Hartogs, Imke MER 10:42.1 01:22.0 39.244
94 Bekkering, Eyelien DSB 10:42.3 01:22.2 39.234
95 Ruderman, Sophie FBU 10:42.7 01:22.6 39.208
96 Weder, Ramona SUI 10:43.0 01:22.9 39.194
97 Mos, Christine DSB 10:43.1 01:23.0 39.186
98 Knietzsch, Jane GER 10:44.3 01:24.2 39.114
99 Juranek, Susanne GER 10:44.3 01:24.2 39.111
100 Hennig, Virginia GER 10:46.7 01:26.6 38.968
101 Jöhrend, Marlen GER 10:47.0 01:26.9 38.948
102 Hofstetter, Valérie SUI 10:47.2 01:27.1 38.939
103 van Wanroij, Marieke DSB 10:47.8 01:27.7 38.903
104 Webb, Lorna KDG 10:47.9 01:27.8 38.893
105 Palland, Marit NWH 10:48.3 01:28.2 38.871
106 Ramsrud, Line Renè FBU 10:48.4 01:28.3 38.865
107 Beyen, Lien KDG 10:49.2 01:29.1 38.815
108 van der Bijl, Karen RTW 10:49.9 01:29.8 38.773
109 Born, Alexandra SUI 10:50.1 01:30.0 38.761
110 Klep, Inge EBH 10:50.6 01:30.4 38.736
111 Braam, Joukje NWH 10:50.6 01:30.5 38.735
112 Sels, Loes VLL 10:51.4 01:31.3 38.686
113 Gödde, Marjolijn ZWH 10:52.0 01:31.8 38.653
114 Silversides, Emma FBU 10:52.9 01:32.8 38.597
115 Knol, Karin NWH 10:53.0 01:32.9 38.592
116 van Katwijk, Nathalie TSC 10:54.9 01:34.8 38.48
117 Schoonbaert, Kim LBL 10:55.1 01:35.0 38.466
118 Torsius, Arien HSW 10:56.4 01:36.3 38.393
119 Schepers, Linda EBH 10:56.6 01:36.5 38.381
120 Kortekaas, Esther ZWH 10:58.3 01:38.2 38.278
121 van Vliet, Linda MOV 11:00.8 01:40.7 38.134
122 Ingels, Veerle VLL 11:01.1 01:41.0 38.118
123 Jansen, Kim MOV 11:03.2 01:43.1 37.999
124 Broxtermann, Katje STS 11:04.1 01:44.0 37.946
125 Duivelshof, Veronique HSW 11:04.5 01:44.4 37.922
126 Linders, Angelique EBH 11:04.5 01:44.4 37.92
127 de Clercq, Mieke KDG 11:05.4 01:45.2 37.875
128 Sloots, Petra RTW 11:07.2 01:47.1 37.767
129 Turkstra, Nancy RTO 11:07.7 01:47.5 37.744
130 Koelemeijer, Alma ZWH 11:09.0 01:48.9 37.668
131 Ottevanger, Eefje HSW 11:10.4 01:50.3 37.588
132 Dirkx, Linda HSW 11:12.3 01:52.2 37.483
133 Verdonck, Sofie KDG 11:13.1 01:53.0 37.438
134 v.d. Wiel, Frederika MER 11:14.5 01:54.4 37.359
135 Schijff, Tamara MOV 11:17.7 01:57.5 37.187
136 Doedée, Renske ZWH 11:18.2 01:58.1 37.155
137 Wouters, Kim HSW 11:22.3 02:02.2 36.934
138 Hoeve, Daphne HSW 11:23.5 02:03.4 36.866
139 Koenen, Merel RTO 11:24.6 02:04.4 36.813
140 Soepenberg, Rylana EBH 11:29.2 02:09.1 36.564
141 Taillie, Karin ZWH 11:34.1 02:14.0 36.304
142 Hofstede, Maaike RTO 11:39.4 02:19.3 36.031

Back to Top

 

 

General Classification  

Position Surname / Name Team Time

Gap

1 Villumsen, Linda Buitenpoort-Flexpoint Tm 09:20
2 Slappendel, Iris Vrienden vh Platteland 09:21 00:01
3 Gunnewijk, Loes Buitenpoort-Flexpoint Tm 09:31 00:11
4 Bates, Natalie AA-Drink Cycling Team same
5 Koedooder, Vera Buitenpoort-Flexpoint Tm 09:33 00:13
6 Wild, Kirsten AA-Drink Cycling Team same
7 van Dongen, Jolanda @Work Cycling Team 09:34 00:14
8 Sandig, Madeleine Buitenpoort-Flexpoint Tm 09:37 00:17
9 Senff, Theresa AA-Drink Cycling Team 09:38 00:18
10 Vos, Marianne DSB-Bank 09:39 00:19
11 Groenveld, Josephine AA-Drink Cycling Team 09:41 00:21
12 Beltman, Chantal Vrienden vh Platteland 09:42 00:22
13 Beutler, Annette Buitenpoort-Flexpoint Tm 09:43 00:23
14 Pohl, Stephanie German National Team 09:44 00:24
15 de Goede, Suzanne AA-Drink Cycling Team 09:45 00:25
16 Rombouts, Sandra Buitenpoort-Flexpoint Tm 09:46 00:26
17 Brodtka, Angela AA-Drink Cycling Team same
18 van Dijk, Ellen Vrienden vh Platteland 09:51 00:31
19 van Rie, An Lotto-Belisol Ladiesteam 09:55 00:35
20 Kerste, Marielle Merida  WV Eemland 09:56 00:36
21 van Damme, Evy Vlaander Caprison/T Inte same
22 Missbach, Sandra AA-Drink Cycling Team same
23 Hollmann, Birgit German National Team same
24 Peeters, Sara Vlaander Caprison/T Inte same
25 Spijkerman, Bertine Therme Skin Care 09:57 00:37
26 v.d. Broek, Irene Therme Skin Care 09:58 00:38
27 Vandromme, Sharon Vlaander Caprison/T Inte same
28 Witteveen, Claudia Merida  WV Eemland 09:59 00:39
29 Traksel-Pirard, Christa Lotto-Belisol Ladiesteam 10:00 00:40
30 Visser, Adrie AA-Drink Cycling Team same
31 Gronow, Stephanie Team Stevens Switzerland same
32 Mansveld, Debby Vlaander Caprison/T Inte same
33 Sterckx, Kathleen Merida  WV Eemland 10:01 00:41
34 Ehrin, Mirella Merida  WV Eemland 10:02 00:42
35 Bakker, Liesbeth @Work Cycling Team 10:03 00:43
36 Braam, Elisabeth Therme Skin Care 10:04 00:44
37 Markerink, Loes @Work Cycling Team 10:05 00:45
38 Steurs, Karen KSV Deerlijk-Gaverzicht same
39 Furrer, Monika National Team Zwitserlnd 10:06 00:46
40 Söllner, Birgit Team Stevens Switzerland 10:08 00:48
41 Wallaard, Jaccolien @Work Cycling Team same
42 Bekkering, Daniëlle DSB-Bank same
43 Bosman, Andrea @Work Cycling Team 10:11 00:51
44 Helmink, Judith @Work Cycling Team same
45 Wannijn, Ine Vlaander Caprison/T Inte 10:12 00:52
46 van Veen, Suzanne Buitenpoort-Flexpoint Tm same
47 van Rijen, Linda Nat.Sel. Junior Vrouwen same
48 Profijt, Marije Therme Skin Care 10:13 00:53
49 Nauta, Njisk Regio Team West 10:14 00:54
50 Vos, Janneke Therme Skin Care same
51 Senn, Mirjam Team Stevens Switzerland 10:15 00:55
52 de Vocht, Liesbet Lotto-Belisol Ladiesteam same
53 Bras, Martine Weijers-Eikhout Groenewd same
54 Verbeke, Grace Lotto-Belisol Ladiesteam same
55 Käser, Nicole Team Stevens Switzerland 10:18 00:58
56 Grimberg, Arenda Regio Team West same
57 Schnider, Pascale National Team Zwitserlnd same
58 Hiemstra, Marie-Sophie Restore Cycling same
59 Hennes, Tanja Buitenpoort-Flexpoint Tm 10:19 00:59
60 van Essen, Sharon Vrienden vh Platteland same
61 Wyman, Helen Team FBUK 10:20 01:00
62 Miggels, Kristy Therme Skin Care 10:21 01:01
63 de Koning, Aukje Therme Skin Care same
64 Werner, Laure Vlaander Caprison/T Inte same
65 Torp, Linn DSB-Bank 10:22 01:02
66 van de Ree, Monique Nat.Sel. Junior Vrouwen 10:24 01:04
67 van den Berg, Debby @Work Cycling Team 10:26 01:06
68 van der Burg, Mieke Restore Cycling same
69 Ringlever, Linda @Work Cycling Team 10:27 01:07
70 van Alebeek, Sissy Regio Team West same
71 De Toit, Yolandi Team FBUK 10:29 01:09
72 Welter, Hannah Nat.Sel. Junior Vrouwen same
73 van Paassen, Sanne Nat.Sel. Junior Vrouwen 10:30 01:10
74 Henrion, Ludivine Lotto-Belisol Ladiesteam same
75 Ehrin, Maria Merida  WV Eemland 10:31 01:11
76 van Veghel, Sandra NW Noordwesthoek same
77 Ammerlaan, Patricia Restore Cycling 10:32 01:12
78 Moonen, Daniëlla Weijers-Eikhout Groenewd same
79 Hillenga, Angela DSB-Bank 10:33 01:13
80 Dijkman, Petra Restore Cycling same
81 Verstraten, Monique Vrienden vh Platteland 10:36 01:16
82 Kampeter, Nicole German National Team same
83 Nijhof, Femke Regio Team Oost same
84 Remmelts, Florien Regio Team Oost 10:37 01:17
85 Hare, Catherine Team FBUK 10:38 01:18
86 Glasbergen, Jessica Merida  WV Eemland same
87 Heijmans, Eva NW Noordwesthoek 10:39 01:19
88 Rötmensen, Moniek Vrienden vh Platteland same
89 Leezer, Yvonne Vrienden vh Platteland 10:40 01:20
90 van Beers, Denise Regio Team West same
91 Brok, Janne Vrienden vh Platteland same
92 Tabak, Noortje Nat.Sel. Junior Vrouwen 10:41 01:21
93 Hartogs, Imke Merida  WV Eemland 10:42 01:22
94 Bekkering, Eyelien DSB-Bank same
95 Ruderman, Sophie Team FBUK same
96 Weder, Ramona National Team Zwitserlnd same
97 Mos, Christine DSB-Bank 10:43 01:23
98 Knietzsch, Jane German National Team 10:44 01:24
99 Juranek, Susanne German National Team same
100 Hennig, Virginia German National Team 10:46 01:26
101 Jöhrend, Marlen German National Team 10:47 01:27
102 Hofstetter, Valérie National Team Zwitserlnd same
103 van Wanroij, Marieke DSB-Bank same
104 Webb, Lorna KSV Deerlijk-Gaverzicht same
105 Palland, Marit NW Noordwesthoek 10:48 01:28
106 Ramsrud, Line Renè Team FBUK same
107 Beyen, Lien KSV Deerlijk-Gaverzicht 10:49 01:29
108 van der Bijl, Karen Regio Team West same
109 Born, Alexandra National Team Zwitserlnd 10:50 01:30
110 Klep, Inge Restore Cycling same
111 Braam, Joukje NW Noordwesthoek same
112 Sels, Loes Vlaander Caprison/T Inte 10:51 01:31
113 Gödde, Marjolijn RSC De Zuidwesthoek same
114 Silversides, Emma Team FBUK 10:52 01:32
115 Knol, Karin NW Noordwesthoek same
116 van Katwijk, Nathalie Therme Skin Care 10:54 01:34
117 Schoonbaert, Kim Lotto-Belisol Ladiesteam 10:55 01:35
118 Torsius, Arien TWC Het Snelle Wiel 10:56 01:36
119 Schepers, Linda Restore Cycling same
120 Kortekaas, Esther RSC De Zuidwesthoek 10:58 01:38
121 van Vliet, Linda Weijers-Eikhout Groenewd 11:00 01:40
122 Ingels, Veerle Vlaander Caprison/T Inte 11:01 01:41
123 Jansen, Kim Weijers-Eikhout Groenewd 11:03 01:43
124 Broxtermann, Katje Team Stevens Switzerland 11:04 01:44
125 Duivelshof, Veronique TWC Het Snelle Wiel same
126 Linders, Angelique Restore Cycling same
127 de Clercq, Mieke KSV Deerlijk-Gaverzicht 11:05 01:45
128 Sloots, Petra Regio Team West 11:07 01:47
129 Turkstra, Nancy Regio Team Oost same
130 Koelemeijer, Alma RSC De Zuidwesthoek 11:09 01:49
131 Ottevanger, Eefje TWC Het Snelle Wiel 11:10 01:50
132 Dirkx, Linda TWC Het Snelle Wiel 11:12 01:52
133 Verdonck, Sofie KSV Deerlijk-Gaverzicht 11:13 01:53
134 v.d. Wiel, Frederika Merida  WV Eemland 11:14 01:54
135 Schijff, Tamara Weijers-Eikhout Groenewd 11:17 01:57
136 Doedée, Renske RSC De Zuidwesthoek 11:18 01:58
137 Wouters, Kim TWC Het Snelle Wiel 11:22 02:02
138 Hoeve, Daphne TWC Het Snelle Wiel 11:23 02:03
139 Koenen, Merel Regio Team Oost 11:24 02:04
140 Soepenberg, Rylana Restore Cycling 11:29 02:09
141 Taillie, Karin RSC De Zuidwesthoek 11:34 02:14
142 Hofstede, Maaike Regio Team Oost 11:39 02:19

 

Back to Top

 

 

 

Want to contact WomensCycling.net? 

The WomensCycling.net email address is

 

To contact the webmaster, the address is :

Type this address into the "To" line of a new email message in your email programme.

The WomensCycling.net email address is displayed as a graphic in order to reduce the amount of 'spam' email received from programmes which 'crawl' the internet for sites with addresses displayed in text and then overwhelm that address with junk, or even forge the address in junk messages that they generate and send to others. Sorry for any inconvenience this approach causes you.

 

Back to top

 

Copyright WomensCycling.net 2004, 2005, 2006 ©